Time,TemperatureF,DewpointF,PressureIn,WindDirection,WindDirectionDegrees,WindSpeedMPH,WindSpeedGustMPH,Humidity,HourlyPrecipIn,Conditions,Clouds,dailyrainin,SoftwareType,DateUTC
2013-10-17 00:03:00,36.9,22.6,29.61,WNW,293,0.7,2.2,56,0.00,,,0.00,WUHU216HW,2013-10-17 07:03:00,
2013-10-17 00:08:00,36.9,22.2,29.61,SSE,158,1.3,3.6,55,0.00,,,0.00,WUHU216HW,2013-10-17 07:08:00,
2013-10-17 00:13:00,36.4,21.2,29.61,SSE,158,1.1,3.6,54,0.00,,,0.00,WUHU216HW,2013-10-17 07:13:00,
2013-10-17 00:18:00,35.6,20.2,29.61,SSE,158,0.2,1.1,53,0.00,,,0.00,WUHU216HW,2013-10-17 07:18:00,
2013-10-17 00:23:00,34.9,19.9,29.61,South,180,0.4,0.4,54,0.00,,,0.00,WUHU216HW,2013-10-17 07:23:00,
2013-10-17 00:28:00,34.7,19.7,29.61,SW,225,0.0,0.9,54,0.00,,,0.00,WUHU216HW,2013-10-17 07:28:00,
2013-10-17 00:33:00,34.2,19.6,29.61,NNW,338,0.9,0.9,55,0.00,,,0.00,WUHU216HW,2013-10-17 07:33:00,
2013-10-17 00:38:00,34.0,19.9,29.61,NW,315,0.2,0.9,56,0.00,,,0.00,WUHU216HW,2013-10-17 07:38:00,
2013-10-17 00:43:00,33.8,19.7,29.61,SSW,203,1.3,1.3,56,0.00,,,0.00,WUHU216HW,2013-10-17 07:43:00,
2013-10-17 00:48:00,33.7,19.5,29.61,SSW,203,0.0,1.3,56,0.00,,,0.00,WUHU216HW,2013-10-17 07:48:00,
2013-10-17 00:53:00,33.3,19.2,29.61,WSW,248,0.4,0.9,56,0.00,,,0.00,WUHU216HW,2013-10-17 07:53:00,
2013-10-17 00:58:00,32.9,18.9,29.61,NW,315,0.7,0.7,56,0.00,,,0.00,WUHU216HW,2013-10-17 07:58:00,
2013-10-17 01:03:00,32.9,18.9,29.61,NW,315,0.4,0.7,56,0.00,,,0.00,WUHU216HW,2013-10-17 08:03:00,
2013-10-17 01:08:00,32.8,18.7,29.61,NNW,338,0.9,0.9,56,0.00,,,0.00,WUHU216HW,2013-10-17 08:08:00,
2013-10-17 01:13:00,32.8,19.6,29.61,NW,315,1.1,1.1,58,0.00,,,0.00,WUHU216HW,2013-10-17 08:13:00,
2013-10-17 01:18:00,32.8,20.4,29.61,NW,315,1.1,1.3,60,0.00,,,0.00,WUHU216HW,2013-10-17 08:18:00,
2013-10-17 01:23:00,32.6,20.6,29.61,NW,315,1.8,1.8,61,0.00,,,0.00,WUHU216HW,2013-10-17 08:23:00,
2013-10-17 01:28:00,32.6,20.6,29.61,NW,315,0.9,1.8,61,0.00,,,0.00,WUHU216HW,2013-10-17 08:28:00,
2013-10-17 01:33:00,32.8,20.8,29.61,NW,315,1.1,1.3,61,0.00,,,0.00,WUHU216HW,2013-10-17 08:33:00,
2013-10-17 01:38:00,32.8,20.4,29.61,SW,225,0.0,1.1,60,0.00,,,0.00,WUHU216HW,2013-10-17 08:38:00,
2013-10-17 01:43:00,32.4,20.2,29.61,SW,225,0.4,0.4,60,0.00,,,0.00,WUHU216HW,2013-10-17 08:43:00,
2013-10-17 01:48:00,32.4,20.2,29.61,WSW,248,0.4,0.4,60,0.00,,,0.00,WUHU216HW,2013-10-17 08:48:00,
2013-10-17 01:53:00,32.2,20.0,29.61,WNW,293,0.9,0.9,60,0.00,,,0.00,WUHU216HW,2013-10-17 08:53:00,
2013-10-17 01:58:00,32.0,19.8,29.61,NW,315,0.9,0.9,60,0.00,,,0.00,WUHU216HW,2013-10-17 08:58:00,
2013-10-17 02:03:00,32.0,19.8,29.61,NW,315,1.1,1.1,60,0.00,,,0.00,WUHU216HW,2013-10-17 09:03:00,
2013-10-17 02:08:00,31.9,19.6,29.62,NW,315,0.0,1.1,60,0.00,,,0.00,WUHU216HW,2013-10-17 09:08:00,
2013-10-17 02:13:00,31.7,19.4,29.61,NW,315,0.4,0.7,60,0.00,,,0.00,WUHU216HW,2013-10-17 09:13:00,
2013-10-17 02:18:00,31.3,19.4,29.62,NW,315,0.9,1.1,61,0.00,,,0.00,WUHU216HW,2013-10-17 09:18:00,
2013-10-17 02:23:00,31.3,19.4,29.61,NW,315,0.4,1.1,61,0.00,,,0.00,WUHU216HW,2013-10-17 09:23:00,
2013-10-17 02:28:00,31.1,19.3,29.61,NW,315,0.4,1.1,61,0.00,,,0.00,WUHU216HW,2013-10-17 09:28:00,
2013-10-17 02:33:00,31.1,19.6,29.61,NW,315,0.4,0.4,62,0.00,,,0.00,WUHU216HW,2013-10-17 09:33:00,
2013-10-17 02:38:00,31.0,19.4,29.61,NW,315,0.7,0.7,62,0.00,,,0.00,WUHU216HW,2013-10-17 09:38:00,
2013-10-17 02:43:00,30.8,20.0,29.61,NW,315,0.9,1.1,64,0.00,,,0.00,WUHU216HW,2013-10-17 09:43:00,
2013-10-17 02:48:00,30.4,20.0,29.61,NNW,338,0.4,1.1,65,0.00,,,0.00,WUHU216HW,2013-10-17 09:48:00,
2013-10-17 02:53:00,30.1,19.6,29.61,NNW,338,0.0,0.7,65,0.00,,,0.00,WUHU216HW,2013-10-17 09:53:00,
2013-10-17 02:58:00,29.9,19.4,29.61,NW,315,1.1,1.1,65,0.00,,,0.00,WUHU216HW,2013-10-17 09:58:00,
2013-10-17 03:03:00,29.5,19.2,29.61,NW,315,0.9,1.3,65,0.00,,,0.00,WUHU216HW,2013-10-17 10:03:00,
2013-10-17 03:08:00,29.3,19.0,29.61,NW,315,1.6,1.8,65,0.00,,,0.00,WUHU216HW,2013-10-17 10:08:00,
2013-10-17 03:13:00,29.2,18.8,29.61,NNW,338,0.7,1.8,65,0.00,,,0.00,WUHU216HW,2013-10-17 10:13:00,
2013-10-17 03:18:00,29.2,19.2,29.61,NNW,338,0.4,1.1,66,0.00,,,0.00,WUHU216HW,2013-10-17 10:18:00,
2013-10-17 03:23:00,29.0,19.0,29.61,NW,315,0.9,1.3,66,0.00,,,0.00,WUHU216HW,2013-10-17 10:23:00,
2013-10-17 03:28:00,29.0,19.0,29.61,SSW,203,1.6,1.6,66,0.00,,,0.00,WUHU216HW,2013-10-17 10:28:00,
2013-10-17 03:33:00,28.8,18.6,29.61,SSW,203,0.0,1.6,65,0.00,,,0.00,WUHU216HW,2013-10-17 10:33:00,
2013-10-17 03:38:00,28.6,18.4,29.61,SW,225,0.0,0.7,65,0.00,,,0.00,WUHU216HW,2013-10-17 10:38:00,
2013-10-17 03:43:00,28.4,18.2,29.61,SW,225,0.0,0.0,65,0.00,,,0.00,WUHU216HW,2013-10-17 10:43:00,
2013-10-17 03:48:00,28.1,17.8,29.61,SW,225,0.0,0.0,65,0.00,,,0.00,WUHU216HW,2013-10-17 10:48:00,
2013-10-17 03:53:00,27.7,17.5,29.61,WSW,248,0.7,0.7,65,0.00,,,0.00,WUHU216HW,2013-10-17 10:53:00,
2013-10-17 03:58:00,27.7,17.8,29.61,East,90,0.4,0.7,66,0.00,,,0.00,WUHU216HW,2013-10-17 10:58:00,
2013-10-17 04:03:00,27.5,17.3,29.61,ESE,113,0.0,1.1,65,0.00,,,0.00,WUHU216HW,2013-10-17 11:03:00,
2013-10-17 04:08:00,27.2,16.9,29.61,ESE,113,0.0,1.1,65,0.00,,,0.00,WUHU216HW,2013-10-17 11:08:00,
2013-10-17 04:13:00,27.0,16.7,29.61,ESE,113,0.0,0.2,65,0.00,,,0.00,WUHU216HW,2013-10-17 11:13:00,
2013-10-17 04:18:00,26.6,16.4,29.61,ESE,113,0.0,0.0,65,0.00,,,0.00,WUHU216HW,2013-10-17 11:18:00,
2013-10-17 04:23:00,26.5,16.2,29.61,ESE,113,0.0,0.0,65,0.00,,,0.00,WUHU216HW,2013-10-17 11:23:00,
2013-10-17 04:28:00,26.3,16.4,29.61,ESE,113,0.0,0.0,66,0.00,,,0.00,WUHU216HW,2013-10-17 11:28:00,
2013-10-17 04:33:00,26.1,16.2,29.61,NNE,23,0.2,0.4,66,0.00,,,0.00,WUHU216HW,2013-10-17 11:33:00,
2013-10-17 04:38:00,25.9,16.4,29.62,NNW,338,0.7,0.7,67,0.00,,,0.00,WUHU216HW,2013-10-17 11:38:00,
2013-10-17 04:43:00,26.1,16.9,29.62,NNW,338,0.2,0.7,68,0.00,,,0.00,WUHU216HW,2013-10-17 11:43:00,
2013-10-17 04:48:00,26.3,17.8,29.62,NW,315,0.4,0.9,70,0.00,,,0.00,WUHU216HW,2013-10-17 11:48:00,
2013-10-17 04:53:00,26.3,17.5,29.62,NW,315,0.0,0.9,69,0.00,,,0.00,WUHU216HW,2013-10-17 11:53:00,
2013-10-17 04:58:00,26.3,17.5,29.62,NW,315,0.0,0.4,69,0.00,,,0.00,WUHU216HW,2013-10-17 11:58:00,
2013-10-17 05:03:00,26.3,17.1,29.62,NW,315,0.4,0.4,68,0.00,,,0.00,WUHU216HW,2013-10-17 12:03:00,
2013-10-17 05:08:00,26.3,17.5,29.62,NW,315,0.7,0.7,69,0.00,,,0.00,WUHU216HW,2013-10-17 12:08:00,
2013-10-17 05:13:00,26.3,17.5,29.62,NW,315,0.4,1.1,69,0.00,,,0.00,WUHU216HW,2013-10-17 12:13:00,
2013-10-17 05:18:00,26.3,17.5,29.62,NW,315,0.0,1.1,69,0.00,,,0.00,WUHU216HW,2013-10-17 12:18:00,
2013-10-17 05:23:00,26.1,16.9,29.62,NW,315,0.0,0.2,68,0.00,,,0.00,WUHU216HW,2013-10-17 12:23:00,
2013-10-17 05:28:00,26.1,16.9,29.63,NW,315,0.0,0.0,68,0.00,,,0.00,WUHU216HW,2013-10-17 12:28:00,
2013-10-17 05:33:00,25.9,17.1,29.63,NW,315,0.7,0.7,69,0.00,,,0.00,WUHU216HW,2013-10-17 12:33:00,
2013-10-17 05:38:00,25.7,17.3,29.63,NW,315,0.0,0.7,70,0.00,,,0.00,WUHU216HW,2013-10-17 12:38:00,
2013-10-17 05:43:00,25.9,17.5,29.63,NW,315,0.2,0.4,70,0.00,,,0.00,WUHU216HW,2013-10-17 12:43:00,
2013-10-17 05:48:00,25.9,17.5,29.63,NW,315,0.0,0.7,70,0.00,,,0.00,WUHU216HW,2013-10-17 12:48:00,
2013-10-17 05:53:00,25.7,17.3,29.63,NW,315,0.2,0.7,70,0.00,,,0.00,WUHU216HW,2013-10-17 12:53:00,
2013-10-17 05:58:00,25.6,17.1,29.63,NW,315,0.4,0.7,70,0.00,,,0.00,WUHU216HW,2013-10-17 12:58:00,
2013-10-17 06:03:00,25.6,17.1,29.63,NW,315,0.0,0.4,70,0.00,,,0.00,WUHU216HW,2013-10-17 13:03:00,
2013-10-17 06:08:00,25.6,17.1,29.63,NW,315,0.0,0.4,70,0.00,,,0.00,WUHU216HW,2013-10-17 13:08:00,
2013-10-17 06:13:00,25.2,16.4,29.63,NW,315,0.0,0.0,69,0.00,,,0.00,WUHU216HW,2013-10-17 13:13:00,
2013-10-17 06:18:00,24.8,16.0,29.63,NW,315,0.4,0.4,69,0.00,,,0.00,WUHU216HW,2013-10-17 13:18:00,
2013-10-17 06:23:00,24.7,15.8,29.63,NW,315,0.0,0.4,69,0.00,,,0.00,WUHU216HW,2013-10-17 13:23:00,
2013-10-17 06:28:00,24.5,15.8,29.63,NW,315,0.4,0.4,69,0.00,,,0.00,WUHU216HW,2013-10-17 13:28:00,
2013-10-17 06:33:00,24.1,15.4,29.63,NNW,338,0.2,0.4,69,0.00,,,0.00,WUHU216HW,2013-10-17 13:33:00,
2013-10-17 06:38:00,23.9,15.2,29.63,NNW,338,0.4,0.9,69,0.00,,,0.00,WUHU216HW,2013-10-17 13:38:00,
2013-10-17 06:43:00,23.9,15.6,29.63,NW,315,0.4,0.9,70,0.00,,,0.00,WUHU216HW,2013-10-17 13:43:00,
2013-10-17 06:48:00,23.9,15.9,29.63,NNW,338,0.7,0.7,71,0.00,,,0.00,WUHU216HW,2013-10-17 13:48:00,
2013-10-17 06:53:00,23.9,16.2,29.63,NW,315,1.1,1.1,72,0.00,,,0.00,WUHU216HW,2013-10-17 13:53:00,
2013-10-17 06:58:00,24.1,16.4,29.63,NW,315,0.7,1.1,72,0.00,,,0.00,WUHU216HW,2013-10-17 13:58:00,
2013-10-17 07:03:00,24.3,16.6,29.63,NW,315,0.2,1.1,72,0.00,,,0.00,WUHU216HW,2013-10-17 14:03:00,
2013-10-17 07:08:00,24.3,16.6,29.63,NW,315,0.4,0.7,72,0.00,,,0.00,WUHU216HW,2013-10-17 14:08:00,
2013-10-17 07:13:00,24.3,16.6,29.63,NW,315,0.0,0.7,72,0.00,,,0.00,WUHU216HW,2013-10-17 14:13:00,
2013-10-17 07:18:00,24.3,16.6,29.64,NW,315,0.2,0.4,72,0.00,,,0.00,WUHU216HW,2013-10-17 14:18:00,
2013-10-17 07:23:00,24.3,16.6,29.64,NW,315,0.0,0.4,72,0.00,,,0.00,WUHU216HW,2013-10-17 14:23:00,
2013-10-17 07:28:00,24.1,16.4,29.64,NW,315,0.0,0.4,72,0.00,,,0.00,WUHU216HW,2013-10-17 14:28:00,
2013-10-17 07:33:00,24.1,16.4,29.64,SSW,203,0.4,0.7,72,0.00,,,0.00,WUHU216HW,2013-10-17 14:33:00,
2013-10-17 07:38:00,23.9,15.9,29.64,SSW,203,0.7,1.1,71,0.00,,,0.00,WUHU216HW,2013-10-17 14:38:00,
2013-10-17 07:43:00,23.8,15.8,29.64,SSW,203,0.0,1.1,71,0.00,,,0.00,WUHU216HW,2013-10-17 14:43:00,
2013-10-17 07:48:00,24.1,16.0,29.64,SSW,203,0.0,1.1,71,0.00,,,0.00,WUHU216HW,2013-10-17 14:48:00,
2013-10-17 07:53:00,25.6,17.7,29.64,SSW,203,0.0,0.0,72,0.00,,,0.00,WUHU216HW,2013-10-17 14:53:00,
2013-10-17 07:58:00,26.5,18.6,29.64,SSW,203,0.0,0.0,72,0.00,,,0.00,WUHU216HW,2013-10-17 14:58:00,
2013-10-17 08:03:00,26.8,18.6,29.64,WNW,293,0.4,0.4,71,0.00,,,0.00,WUHU216HW,2013-10-17 15:03:00,
2013-10-17 08:08:00,27.4,19.2,29.64,WNW,293,0.2,0.4,71,0.00,,,0.00,WUHU216HW,2013-10-17 15:08:00,
2013-10-17 08:13:00,28.3,20.1,29.64,WNW,293,0.0,0.4,71,0.00,,,0.00,WUHU216HW,2013-10-17 15:13:00,
2013-10-17 08:18:00,30.1,21.8,29.64,WNW,293,0.0,0.0,71,0.00,,,0.00,WUHU216HW,2013-10-17 15:18:00,
2013-10-17 08:23:00,32.4,23.8,29.64,WNW,293,0.0,0.4,70,0.00,,,0.00,WUHU216HW,2013-10-17 15:23:00,
2013-10-17 08:28:00,35.6,26.1,29.64,WNW,293,0.0,0.4,68,0.00,,,0.00,WUHU216HW,2013-10-17 15:28:00,
2013-10-17 08:33:00,38.2,27.4,29.64,WNW,293,0.4,0.4,65,0.00,,,0.00,WUHU216HW,2013-10-17 15:33:00,
2013-10-17 08:38:00,39.1,27.5,29.64,WNW,293,0.0,0.4,63,0.00,,,0.00,WUHU216HW,2013-10-17 15:38:00,
2013-10-17 08:43:00,38.5,26.2,29.64,WNW,293,0.0,0.4,61,0.00,,,0.00,WUHU216HW,2013-10-17 15:43:00,
2013-10-17 08:48:00,37.8,25.6,29.64,ESE,113,1.1,1.1,61,0.00,,,0.00,WUHU216HW,2013-10-17 15:48:00,
2013-10-17 08:53:00,38.7,26.7,29.65,ESE,113,0.4,1.1,62,0.00,,,0.00,WUHU216HW,2013-10-17 15:53:00,
2013-10-17 08:58:00,40.0,27.5,29.65,ESE,113,0.9,1.1,61,0.00,,,0.00,WUHU216HW,2013-10-17 15:58:00,
2013-10-17 09:03:00,40.0,27.2,29.65,ESE,113,1.1,1.6,60,0.00,,,0.00,WUHU216HW,2013-10-17 16:03:00,
2013-10-17 09:08:00,39.4,26.6,29.65,SE,135,0.4,1.6,60,0.00,,,0.00,WUHU216HW,2013-10-17 16:08:00,
2013-10-17 09:13:00,39.1,26.3,29.65,SSE,158,1.3,1.3,60,0.00,,,0.00,WUHU216HW,2013-10-17 16:13:00,
2013-10-17 09:18:00,38.9,26.1,29.65,South,180,1.1,1.8,60,0.00,,,0.00,WUHU216HW,2013-10-17 16:18:00,
2013-10-17 09:23:00,38.9,26.1,29.65,SE,135,1.6,2.2,60,0.00,,,0.00,WUHU216HW,2013-10-17 16:23:00,
2013-10-17 09:28:00,39.1,26.6,29.65,SSE,158,0.2,2.2,61,0.00,,,0.00,WUHU216HW,2013-10-17 16:28:00,
2013-10-17 09:33:00,39.1,26.6,29.65,SE,135,1.1,2.2,61,0.00,,,0.00,WUHU216HW,2013-10-17 16:33:00,
2013-10-17 09:39:00,39.2,26.8,29.65,ESE,113,2.5,2.5,61,0.00,,,0.00,WUHU216HW,2013-10-17 16:39:00,
2013-10-17 09:44:00,40.0,27.5,29.65,ESE,113,2.0,3.1,61,0.00,,,0.00,WUHU216HW,2013-10-17 16:44:00,
2013-10-17 09:49:00,40.3,27.9,29.65,SE,135,2.2,3.1,61,0.00,,,0.00,WUHU216HW,2013-10-17 16:49:00,
2013-10-17 09:54:00,40.7,27.9,29.65,SSE,158,2.0,2.7,60,0.00,,,0.00,WUHU216HW,2013-10-17 16:54:00,
2013-10-17 09:59:00,41.0,28.3,29.65,South,180,2.0,2.5,60,0.00,,,0.00,WUHU216HW,2013-10-17 16:59:00,
2013-10-17 10:04:00,41.4,28.6,29.65,South,180,3.4,3.4,60,0.00,,,0.00,WUHU216HW,2013-10-17 17:04:00,
2013-10-17 10:09:00,41.8,28.9,29.65,WSW,248,0.4,3.4,60,0.00,,,0.00,WUHU216HW,2013-10-17 17:09:00,
2013-10-17 10:14:00,42.1,28.8,29.65,SSW,203,0.9,3.1,59,0.00,,,0.00,WUHU216HW,2013-10-17 17:14:00,
2013-10-17 10:19:00,42.5,29.2,29.65,SE,135,2.0,3.1,59,0.00,,,0.00,WUHU216HW,2013-10-17 17:19:00,
2013-10-17 10:24:00,43.0,29.6,29.65,SSE,158,1.6,2.5,59,0.00,,,0.00,WUHU216HW,2013-10-17 17:24:00,
2013-10-17 10:29:00,43.6,29.7,29.65,SE,135,2.7,3.8,58,0.00,,,0.00,WUHU216HW,2013-10-17 17:29:00,
2013-10-17 10:34:00,44.3,30.0,29.65,South,180,3.1,3.8,57,0.00,,,0.00,WUHU216HW,2013-10-17 17:34:00,
2013-10-17 10:39:00,44.6,30.3,29.65,SSW,203,2.5,3.8,57,0.00,,,0.00,WUHU216HW,2013-10-17 17:39:00,
2013-10-17 10:44:00,45.0,30.7,29.65,SE,135,1.1,3.8,57,0.00,,,0.00,WUHU216HW,2013-10-17 17:44:00,
2013-10-17 10:49:00,45.5,31.1,29.65,SE,135,1.1,4.0,57,0.00,,,0.00,WUHU216HW,2013-10-17 17:49:00,
2013-10-17 10:54:00,46.1,31.6,29.64,SSW,203,2.2,4.0,57,0.00,,,0.00,WUHU216HW,2013-10-17 17:54:00,
2013-10-17 10:59:00,46.8,31.9,29.64,SE,135,0.9,3.6,56,0.00,,,0.00,WUHU216HW,2013-10-17 17:59:00,
2013-10-17 11:04:00,47.3,32.4,29.64,South,180,2.5,3.6,56,0.00,,,0.00,WUHU216HW,2013-10-17 18:04:00,
2013-10-17 11:09:00,47.9,32.4,29.64,South,180,1.3,2.7,55,0.00,,,0.00,WUHU216HW,2013-10-17 18:09:00,
2013-10-17 11:14:00,48.4,33.0,29.64,WNW,293,0.9,3.8,55,0.00,,,0.00,WUHU216HW,2013-10-17 18:14:00,
2013-10-17 11:19:00,48.8,32.9,29.64,NW,315,0.9,3.8,54,0.00,,,0.00,WUHU216HW,2013-10-17 18:19:00,
2013-10-17 11:24:00,49.3,33.3,29.64,SE,135,3.4,3.4,54,0.00,,,0.00,WUHU216HW,2013-10-17 18:24:00,
2013-10-17 11:29:00,50.0,33.6,29.64,SE,135,3.6,3.6,53,0.00,,,0.00,WUHU216HW,2013-10-17 18:29:00,
2013-10-17 11:34:00,50.9,34.4,29.64,North,0,0.0,3.6,53,0.00,,,0.00,WUHU216HW,2013-10-17 18:34:00,
2013-10-17 11:39:00,51.7,34.1,29.64,SE,135,0.9,1.1,51,0.00,,,0.00,WUHU216HW,2013-10-17 18:39:00,
2013-10-17 11:44:00,52.2,34.2,29.64,SSE,158,1.3,3.8,50,0.00,,,0.00,WUHU216HW,2013-10-17 18:44:00,
2013-10-17 11:49:00,52.9,34.8,29.63,South,180,1.8,4.0,50,0.00,,,0.00,WUHU216HW,2013-10-17 18:49:00,
2013-10-17 11:54:00,53.5,34.7,29.63,WNW,293,1.1,4.3,49,0.00,,,0.00,WUHU216HW,2013-10-17 18:54:00,
2013-10-17 11:59:00,53.6,34.9,29.63,SW,225,1.1,4.3,49,0.00,,,0.00,WUHU216HW,2013-10-17 18:59:00,
2013-10-17 12:04:00,54.4,35.0,29.63,SE,135,2.0,4.0,48,0.00,,,0.00,WUHU216HW,2013-10-17 19:04:00,
2013-10-17 12:09:00,54.9,36.0,29.63,SW,225,1.6,4.5,49,0.00,,,0.00,WUHU216HW,2013-10-17 19:09:00,
2013-10-17 12:14:00,55.3,36.4,29.63,South,180,2.5,4.5,49,0.00,,,0.00,WUHU216HW,2013-10-17 19:14:00,
2013-10-17 12:19:00,55.8,36.9,29.62,NW,315,0.9,2.9,49,0.00,,,0.00,WUHU216HW,2013-10-17 19:19:00,
2013-10-17 12:24:00,56.2,36.6,29.62,SSE,158,2.2,2.9,48,0.00,,,0.00,WUHU216HW,2013-10-17 19:24:00,
2013-10-17 12:29:00,56.7,37.2,29.62,North,0,1.1,4.5,48,0.00,,,0.00,WUHU216HW,2013-10-17 19:29:00,
2013-10-17 12:34:00,57.4,37.4,29.62,SE,135,3.4,4.5,47,0.00,,,0.00,WUHU216HW,2013-10-17 19:34:00,
2013-10-17 12:39:00,58.0,37.8,29.62,South,180,1.8,4.0,47,0.00,,,0.00,WUHU216HW,2013-10-17 19:39:00,
2013-10-17 12:44:00,58.3,38.2,29.62,ESE,113,2.5,4.0,47,0.00,,,0.00,WUHU216HW,2013-10-17 19:44:00,
2013-10-17 12:49:00,58.9,38.1,29.62,ESE,113,2.2,4.0,46,0.00,,,0.00,WUHU216HW,2013-10-17 19:49:00,
2013-10-17 12:54:00,59.2,38.3,29.62,NNW,338,2.9,4.0,46,0.00,,,0.00,WUHU216HW,2013-10-17 19:54:00,
2013-10-17 12:59:00,59.0,37.6,29.62,NW,315,1.3,3.6,45,0.00,,,0.00,WUHU216HW,2013-10-17 19:59:00,
2013-10-17 13:04:00,58.9,36.9,29.61,NE,45,1.6,3.6,44,0.00,,,0.00,WUHU216HW,2013-10-17 20:04:00,
2013-10-17 13:09:00,59.0,37.1,29.61,North,0,0.7,2.9,44,0.00,,,0.00,WUHU216HW,2013-10-17 20:09:00,
2013-10-17 13:14:00,59.4,37.4,29.61,North,0,1.8,2.7,44,0.00,,,0.00,WUHU216HW,2013-10-17 20:14:00,
2013-10-17 13:19:00,59.8,37.7,29.60,NW,315,2.0,2.9,44,0.00,,,0.00,WUHU216HW,2013-10-17 20:19:00,
2013-10-17 13:24:00,59.9,37.3,29.61,WNW,293,2.2,2.9,43,0.00,,,0.00,WUHU216HW,2013-10-17 20:24:00,
2013-10-17 13:29:00,60.1,37.4,29.61,South,180,2.9,5.4,43,0.00,,,0.00,WUHU216HW,2013-10-17 20:29:00,
2013-10-17 13:34:00,60.5,37.8,29.60,SSE,158,4.0,5.4,43,0.00,,,0.00,WUHU216HW,2013-10-17 20:34:00,
2013-10-17 13:39:00,60.8,37.5,29.60,South,180,4.0,5.1,42,0.00,,,0.00,WUHU216HW,2013-10-17 20:39:00,
2013-10-17 13:44:00,61.6,37.6,29.60,SSE,158,4.7,7.6,41,0.00,,,0.00,WUHU216HW,2013-10-17 20:44:00,
2013-10-17 13:49:00,61.6,37.6,29.60,South,180,0.9,7.6,41,0.00,,,0.00,WUHU216HW,2013-10-17 20:49:00,
2013-10-17 13:54:00,61.7,37.2,29.59,SSE,158,5.8,5.8,40,0.00,,,0.00,WUHU216HW,2013-10-17 20:54:00,
2013-10-17 13:59:00,61.7,37.7,29.59,SSW,203,3.4,5.8,41,0.00,,,0.00,WUHU216HW,2013-10-17 20:59:00,
2013-10-17 14:04:00,61.7,37.7,29.59,South,180,4.0,5.8,41,0.00,,,0.00,WUHU216HW,2013-10-17 21:04:00,
2013-10-17 14:09:00,61.9,37.9,29.59,South,180,4.7,6.7,41,0.00,,,0.00,WUHU216HW,2013-10-17 21:09:00,
2013-10-17 14:14:00,61.9,37.4,29.59,SSW,203,4.0,6.7,40,0.00,,,0.00,WUHU216HW,2013-10-17 21:14:00,
2013-10-17 14:19:00,62.1,38.1,29.59,SSW,203,2.9,4.7,41,0.00,,,0.00,WUHU216HW,2013-10-17 21:19:00,
2013-10-17 14:24:00,62.1,38.1,29.59,South,180,7.4,7.4,41,0.00,,,0.00,WUHU216HW,2013-10-17 21:24:00,
2013-10-17 14:29:00,62.1,38.1,29.59,SSW,203,3.6,7.4,41,0.00,,,0.00,WUHU216HW,2013-10-17 21:29:00,
2013-10-17 14:34:00,62.3,38.3,29.59,WNW,293,0.9,6.9,41,0.00,,,0.00,WUHU216HW,2013-10-17 21:34:00,
2013-10-17 14:39:00,62.3,37.6,29.59,South,180,6.7,6.7,40,0.00,,,0.00,WUHU216HW,2013-10-17 21:39:00,
2013-10-17 14:44:00,62.3,37.6,29.59,South,180,4.7,8.5,40,0.00,,,0.00,WUHU216HW,2013-10-17 21:44:00,
2013-10-17 14:49:00,62.3,37.6,29.58,WSW,248,1.8,8.5,40,0.00,,,0.00,WUHU216HW,2013-10-17 21:49:00,
2013-10-17 14:54:00,62.3,37.6,29.58,South,180,4.9,4.9,40,0.00,,,0.00,WUHU216HW,2013-10-17 21:54:00,
2013-10-17 14:59:00,62.5,37.8,29.58,SSE,158,2.9,4.9,40,0.00,,,0.00,WUHU216HW,2013-10-17 21:59:00,
2013-10-17 15:04:00,62.5,37.1,29.58,South,180,2.0,6.0,39,0.00,,,0.00,WUHU216HW,2013-10-17 22:04:00,
2013-10-17 15:09:00,62.5,37.1,29.58,SSW,203,6.0,6.0,39,0.00,,,0.00,WUHU216HW,2013-10-17 22:09:00,
2013-10-17 15:14:00,62.5,36.4,29.58,SSW,203,5.4,6.0,38,0.00,,,0.00,WUHU216HW,2013-10-17 22:14:00,
2013-10-17 15:19:00,62.5,36.4,29.58,North,0,0.0,5.4,38,0.00,,,0.00,WUHU216HW,2013-10-17 22:19:00,
2013-10-17 15:24:00,62.8,36.7,29.58,North,0,0.0,5.4,38,0.00,,,0.00,WUHU216HW,2013-10-17 22:24:00,
2013-10-17 15:29:00,63.0,36.9,29.58,SW,225,3.6,3.6,38,0.00,,,0.00,WUHU216HW,2013-10-17 22:29:00,
2013-10-17 15:34:00,63.2,37.7,29.58,NW,315,0.4,3.6,39,0.00,,,0.00,WUHU216HW,2013-10-17 22:34:00,
2013-10-17 15:39:00,63.0,37.6,29.58,South,180,2.7,2.7,39,0.00,,,0.00,WUHU216HW,2013-10-17 22:39:00,
2013-10-17 15:44:00,63.0,37.6,29.58,SE,135,4.7,4.7,39,0.00,,,0.00,WUHU216HW,2013-10-17 22:44:00,
2013-10-17 15:49:00,63.0,37.6,29.58,SSW,203,2.5,4.7,39,0.00,,,0.00,WUHU216HW,2013-10-17 22:49:00,
2013-10-17 15:54:00,63.2,37.0,29.58,SSE,158,2.9,5.1,38,0.00,,,0.00,WUHU216HW,2013-10-17 22:54:00,
2013-10-17 15:59:00,63.2,37.0,29.57,SSE,158,2.5,5.6,38,0.00,,,0.00,WUHU216HW,2013-10-17 22:59:00,
2013-10-17 16:04:00,63.4,37.2,29.58,SSE,158,4.9,5.6,38,0.00,,,0.00,WUHU216HW,2013-10-17 23:04:00,
2013-10-17 16:09:00,63.4,37.2,29.57,South,180,4.9,6.7,38,0.00,,,0.00,WUHU216HW,2013-10-17 23:09:00,
2013-10-17 16:14:00,63.4,37.2,29.57,SSW,203,3.6,6.7,38,0.00,,,0.00,WUHU216HW,2013-10-17 23:14:00,
2013-10-17 16:19:00,63.4,37.2,29.57,SSW,203,1.1,3.8,38,0.00,,,0.00,WUHU216HW,2013-10-17 23:19:00,
2013-10-17 16:24:00,63.4,37.2,29.57,SSE,158,3.6,4.0,38,0.00,,,0.00,WUHU216HW,2013-10-17 23:24:00,
2013-10-17 16:29:00,63.4,37.2,29.57,SW,225,3.8,7.6,38,0.00,,,0.00,WUHU216HW,2013-10-17 23:29:00,
2013-10-17 16:34:00,63.5,37.4,29.57,SSE,158,2.9,7.6,38,0.00,,,0.00,WUHU216HW,2013-10-17 23:34:00,
2013-10-17 16:39:00,63.5,37.4,29.57,SSW,203,1.6,4.7,38,0.00,,,0.00,WUHU216HW,2013-10-17 23:39:00,
2013-10-17 16:45:00,63.5,37.4,29.57,SSE,158,1.1,4.7,38,0.00,,,0.00,WUHU216HW,2013-10-17 23:45:00,
2013-10-17 16:50:00,63.5,37.4,29.57,NNW,338,1.1,3.4,38,0.00,,,0.00,WUHU216HW,2013-10-17 23:50:00,
2013-10-17 16:55:00,63.5,37.4,29.57,SE,135,3.6,3.6,38,0.00,,,0.00,WUHU216HW,2013-10-17 23:55:00,
2013-10-17 17:00:00,63.4,37.2,29.57,SSW,203,1.6,4.3,38,0.00,,,0.00,WUHU216HW,2013-10-18 00:00:00,
2013-10-17 17:05:00,63.4,36.5,29.57,SSW,203,2.2,4.0,37,0.00,,,0.00,WUHU216HW,2013-10-18 00:05:00,
2013-10-17 17:10:00,63.4,37.2,29.57,WSW,248,0.0,4.3,38,0.00,,,0.00,WUHU216HW,2013-10-18 00:10:00,
2013-10-17 17:15:00,63.2,37.0,29.57,SW,225,1.1,4.3,38,0.00,,,0.00,WUHU216HW,2013-10-18 00:15:00,
2013-10-17 17:20:00,63.0,36.9,29.57,SSW,203,2.5,2.5,38,0.00,,,0.00,WUHU216HW,2013-10-18 00:20:00,
2013-10-17 17:25:00,62.8,36.7,29.57,SSW,203,0.7,2.5,38,0.00,,,0.00,WUHU216HW,2013-10-18 00:25:00,
2013-10-17 17:30:00,62.6,36.5,29.57,South,180,3.1,3.1,38,0.00,,,0.00,WUHU216HW,2013-10-18 00:30:00,
2013-10-17 17:35:00,62.3,36.2,29.57,SW,225,0.0,3.1,38,0.00,,,0.00,WUHU216HW,2013-10-18 00:35:00,
2013-10-17 17:40:00,61.9,35.9,29.57,SSE,158,1.1,2.9,38,0.00,,,0.00,WUHU216HW,2013-10-18 00:40:00,
2013-10-17 17:45:00,61.6,35.6,29.57,SSE,158,0.0,1.1,38,0.00,,,0.00,WUHU216HW,2013-10-18 00:45:00,
2013-10-17 17:50:00,61.0,35.1,29.57,SSE,158,0.4,0.7,38,0.00,,,0.00,WUHU216HW,2013-10-18 00:50:00,
2013-10-17 17:55:00,60.5,35.3,29.57,WSW,248,1.1,1.1,39,0.00,,,0.00,WUHU216HW,2013-10-18 00:55:00,
2013-10-17 18:00:00,60.1,35.0,29.57,West,270,1.1,1.1,39,0.00,,,0.00,WUHU216HW,2013-10-18 01:00:00,
2013-10-17 18:05:00,59.6,34.6,29.57,NW,315,1.1,1.1,39,0.00,,,0.00,WUHU216HW,2013-10-18 01:05:00,
2013-10-17 18:10:00,59.0,34.7,29.57,NW,315,1.1,1.3,40,0.00,,,0.00,WUHU216HW,2013-10-18 01:10:00,
2013-10-17 18:15:00,58.5,34.3,29.57,NW,315,1.3,1.3,40,0.00,,,0.00,WUHU216HW,2013-10-18 01:15:00,
2013-10-17 18:20:00,58.0,33.8,29.57,NW,315,1.3,1.3,40,0.00,,,0.00,WUHU216HW,2013-10-18 01:20:00,